World > North America > United States > Minnesota > Baxters

Hourly Baxters, MN Regional Weather

Feedback E-mail the Weather

Quick WX

Baxters, MN Weather Maps

°F °C°F °C
Baxters Weather Map
UTC Time: 8/7/2022, 19:55
Your Time:

Baxters, MN Regional Weather

Expires:202208072000;;631859
ASUS43 KMPX 071910
RWRMN 
WEATHER ROUNDUP FOR MINNESOTA
NATIONAL WEATHER SERVICE TWIN CITIES/CHANHASSEN MN
200 PM CDT SUN AUG 07 2022


NOTE: "FAIR" INDICATES FEW OR NO CLOUDS BELOW 12,000 FEET WITH NO
SIGNIFICANT WEATHER AND/OR OBSTRUCTIONS TO VISIBILITY. N/A MEANS
CURRENT SKY AND/OR WEATHER CONDITIONS ARE NOT AVAILABLE.


MNZ033>034-036-042>043-049>051-058-059-072000-
   Central Minnesota     
  
CITY           SKY/WX    TMP DP  RH WIND       PRES   REMARKS
ST CLOUD       CLOUDY    71  63  75 VRB5      30.04S                  
SAUK CENTRE    CLOUDY    70  61  72 N6        30.05F                  
PAYNESVILLE    CLOUDY    72  63  73 NE6       30.05F                  
AITKIN         PTSUNNY   66  55  68 NE9       30.07F                  
PINE RIVER     PTSUNNY   66  57  72 NE3       30.13S                  
BRAINERD       CLOUDY    70  56  61 NE9       30.08F                  
STAPLES        MOSUNNY   72  57  60 N8        30.08F                  
LONG PRAIRIE   CLOUDY    70  59  68 N7        30.07F                  
LITTLE FALLS     N/A     70  61  73 NE3       30.06S                  
LITCHFIELD     PTSUNNY   72  64  78 N6        30.04R                  
BUFFALO        PTSUNNY   70  63  78 E10       30.00F                  
MAPLE LAKE     CLOUDY    73  59  60 N7        30.04F                  
HUTCHINSON     CLOUDY    76  66  71 N6        30.03F                  
$$

SKY/WX - Weather  TMP - Temperature  DP - Dew Point  RH - Humidity
WIND - Wind Direction/Speed PRES - Barometric Pressure VSB - Visibility
WCI - Wind Chill Index E13G22 Wind - East Wind 13 mph/Gusts of 22 mph

Trending Headlines

Baxters Radar Loop



Baxters Quick Facts


National Two Day Weather Forecast


E-mail the Baxters Weather Forecast

Voice your opinion or tell us about page issues...